"Pseudo-MPEC" for P2182tN

Created 2020 Oct 19 3:07:49 UT using Find_Orb

Click here for an explanation of pseudo-MPECs

 
 Astrometry: 
     P2182tN  C2020 10 09.45652805 38 08.58 -12 00 31.7    ~AJ0M 21.50GVNEOCPG96
     P2182tN  C2020 10 09.46168205 38 09.12 -12 00 41.4    ~AJ0M 21.17GVNEOCPG96
     P2182tN  C2020 10 09.46685005 38 09.69 -12 00 50.0    ~AJ0M 22.10GVNEOCPG96
     P2182tN  C2020 10 09.47199905 38 10.21 -12 00 59.7    ~AJ0M 20.97GVNEOCPG96
     P2182tN  C2020 10 15aO2-G8M*V)F)Dxtkumdy(w2DS9+qtlG-Sny'x0dx9.PhSlc!0Ml%F52
     P2182tN  C2020 10 15f7XYBOTiP;BxnAstrometry#P$hredacted;NrP$`^J#_Z*9'/ZAF52
     P2182tN  C2020 10 159:qm]GbZFW]v5%%aV]!:.$SB/lILA`f613sclick2PS2a7cvh8L%F52
     P2182tN !C2020 10 169@3sVM@%EFG_2]p0]Pdo7U2gKTYxZsrm7FIf)=2*#ygMyQd);Ztp673
     P2182tN !C2020 10 16F;B!ut[nFN_lRW2[tyeQx,%Q]C4S#bhereIJ#E%xs`Fth_f@SU7R673
     P2182tN  C2020 10 16@B*!5E#qforetLhexplanationt+AmkggZM.TCa0Zm*WweXf)#iTF51
     P2182tN  C2020 10 16t,vn8=)_]=2krU,\jy@GP+%p4]9hcmcIj1aa'EFe20hhqJ2Jk3UvF51
     P2182tN  C2020 10 17lKeOeSl2pV\#c(?Qm-?d2+4WCS0or:4L,vHWXOB\m$!Dqc=5uHJRF51
     P2182tN  C2020 10 17@G_+2E*^Q+ZTm4kip^mr)e5FTdIXpi/NBAs'Y%2n3NaGsP=WCi:bF51

Station data:
(673) Table Mountain Observatory, Wrightwood  (N34.381488 W117.682170)
   US/California.  Observer W. M. Owen Jr. 0.61-m f/16 reflector + CCD.
(F51) Pan-STARRS 1, Haleakala  (N20.707235 W156.255910)  US/Hawaii.
   Observers N. Primak, A. Schultz, S. Watters, J. Thiel, T. Goggia. Measurer
   PS1 Science Consortium. 1.8-m Ritchey-Chrétien + CCD.
(F52) Pan-STARRS 2, Haleakala  (N20.707384 W156.255910)  US/Hawaii. 1.8-m
   Ritchey-Chrétien + CCD.
(G96) Mt. Lemmon Survey  (N32.442754 W110.788720)  US/Arizona.  Observers T.
   A. Pruyne, B. M. Africano, E. J. Christensen, G. A. Farneth, D. C. Fuls,
   A. R. Gibbs, A. D. Grauer, H. Gröller, J. A. Johnson, R. A. Kowalski, S.
   M. Larson, G. J. Leonard, D. Rankin, R. L. Seaman, F. C. Shelly. 1.5-m
   reflector + 10K CCD.

Orbital elements:  P2182tN
   Perihelion 2020 Dec 7.696957 +/- 1.09 TT = 16:43:37 (JD 2459191.196957)
Epoch 2020 Oct 17.0 TT = JDT 2459139.5   Earth MOID: 0.7871   AutoNEOCP
M 347.59684336 +/- 0.6              (J2000 ecliptic)
n   0.23992044 +/- 0.00785          Peri.  264.47912 +/- 0.8
a   2.56502270 +/- 0.0559           Node   179.92106 +/- 0.32
e   0.3973813 +/- 0.0104            Incl.   27.92702 +/- 0.17
P   4.11                   H 19.1   G  0.15   U  9.5  
q 1.54573057 +/- 0.00696    Q 3.58431484 +/- 0.103
From 13 observations 2020 Oct. 9-17; mean residual 0".29
Residuals in arcseconds: 
201009 G96  .12-  .30+    201015 F52  .49-  .39-    201016 F51  .30-  .16-    
201009 G96  .13-  .27-    201015 F52  .34-  .27-    201017 F51  .24-  .23-    
201009 G96  .29+  .29+    201016 673  .30+  .55+    201017 F51  .23-  .21-    
201009 G96  .00   .29-    201016 673  .23-  .41-    
201015 F52  .22-  .28-    201016 F51  .25-  .23-    

Ephemerides (geocentric):
Date (UTC) HH   RA              Dec         delta   r     elong  mag " sig PA
---- -- -- --  -------------   -----------  ------ ------ -----  --- ---- ---
2020 10 19 03  05 54 28.721   -16 51 52.40  .95347 1.6041 110.7 21.5 1.39  54
2020 10 19 04  05 54 32.647   -16 53 08.78  .95327 1.6041 110.7 21.5 1.41  54
2020 10 19 05  05 54 36.570   -16 54 25.16  .95306 1.6040 110.7 21.5 1.44  54
2020 10 19 06  05 54 40.491   -16 55 41.55  .95286 1.6039 110.7 21.5 1.47  54
2020 10 19 07  05 54 44.408   -16 56 57.94  .95266 1.6038 110.8 21.5 1.50  54
2020 10 19 08  05 54 48.323   -16 58 14.33  .95245 1.6037 110.8 21.5 1.53  54
2020 10 19 09  05 54 52.236   -16 59 30.73  .95225 1.6036 110.8 21.5 1.56  54
2020 10 19 10  05 54 56.145   -17 00 47.12  .95204 1.6035 110.8 21.5 1.59  54
2020 10 19 11  05 55 00.052   -17 02 03.53  .95184 1.6034 110.8 21.5 1.62  54
2020 10 19 12  05 55 03.956   -17 03 19.93  .95164 1.6033 110.8 21.5 1.65  54
2020 10 19 13  05 55 07.857   -17 04 36.33  .95143 1.6032 110.8 21.5 1.68  54
2020 10 19 14  05 55 11.755   -17 05 52.74  .95123 1.6031 110.8 21.5 1.71  54
2020 10 19 15  05 55 15.651   -17 07 09.15  .95103 1.6030 110.8 21.5 1.74  54
2020 10 19 16  05 55 19.544   -17 08 25.57  .95083 1.6029 110.8 21.5 1.77  53
2020 10 19 17  05 55 23.434   -17 09 41.98  .95063 1.6028 110.8 21.5 1.80  53
2020 10 19 18  05 55 27.322   -17 10 58.40  .95042 1.6027 110.8 21.5 1.83  53
2020 10 19 19  05 55 31.206   -17 12 14.82  .95022 1.6026 110.9 21.5 1.86  53
2020 10 19 20  05 55 35.088   -17 13 31.24  .95002 1.6025 110.9 21.5 1.89  53
2020 10 19 21  05 55 38.967   -17 14 47.66  .94982 1.6024 110.9 21.5 1.92  53
2020 10 19 22  05 55 42.844   -17 16 04.09  .94962 1.6024 110.9 21.5 1.96  53
2020 10 19 23  05 55 46.717   -17 17 20.52  .94942 1.6023 110.9 21.5 1.99  53
2020 10 20 00  05 55 50.588   -17 18 36.94  .94922 1.6022 110.9 21.5 2.02  53
2020 10 20 01  05 55 54.456   -17 19 53.37  .94902 1.6021 110.9 21.5 2.05  53
2020 10 20 02  05 55 58.321   -17 21 09.81  .94882 1.6020 110.9 21.5 2.08  53
2020 10 20 03  05 56 02.184   -17 22 26.24  .94862 1.6019 110.9 21.5 2.12  53
2020 10 20 04  05 56 06.043   -17 23 42.67  .94842 1.6018 110.9 21.5 2.15  53
2020 10 20 05  05 56 09.900   -17 24 59.11  .94822 1.6017 110.9 21.5 2.18  53
2020 10 20 06  05 56 13.754   -17 26 15.55  .94802 1.6016 110.9 21.5 2.22  53
2020 10 20 07  05 56 17.606   -17 27 31.99  .94782 1.6015 111.0 21.5 2.25  53
2020 10 20 08  05 56 21.454   -17 28 48.43  .94762 1.6014 111.0 21.5 2.28  53
2020 10 20 09  05 56 25.300   -17 30 04.87  .94742 1.6013 111.0 21.5 2.32  53
2020 10 20 10  05 56 29.143   -17 31 21.31  .94723 1.6012 111.0 21.5 2.35  53
2020 10 20 11  05 56 32.983   -17 32 37.75  .94703 1.6011 111.0 21.5 2.39  53
2020 10 20 12  05 56 36.821   -17 33 54.19  .94683 1.6011 111.0 21.5 2.42  53
2020 10 20 13  05 56 40.655   -17 35 10.64  .94663 1.6010 111.0 21.5 2.45  53
2020 10 20 14  05 56 44.487   -17 36 27.08  .94644 1.6009 111.0 21.5 2.49  53
2020 10 20 15  05 56 48.316   -17 37 43.53  .94624 1.6008 111.0 21.5 2.52  52
2020 10 20 16  05 56 52.142   -17 38 59.97  .94604 1.6007 111.0 21.5 2.56  52
2020 10 20 17  05 56 55.965   -17 40 16.42  .94585 1.6006 111.0 21.5 2.60  52
2020 10 20 18  05 56 59.786   -17 41 32.87  .94565 1.6005 111.0 21.5 2.63  52
2020 10 20 19  05 57 03.604   -17 42 49.31  .94545 1.6004 111.1 21.5 2.67  52
2020 10 20 20  05 57 07.419   -17 44 05.76  .94526 1.6003 111.1 21.5 2.70  52
2020 10 20 21  05 57 11.231   -17 45 22.21  .94506 1.6002 111.1 21.5 2.74  52
2020 10 20 22  05 57 15.040   -17 46 38.65  .94487 1.6001 111.1 21.5 2.78  52
2020 10 20 23  05 57 18.846   -17 47 55.10  .94467 1.6000 111.1 21.5 2.81  52
2020 10 21 00  05 57 22.650   -17 49 11.55  .94448 1.5999 111.1 21.5 2.85  52
2020 10 21 01  05 57 26.451   -17 50 28.00  .94428 1.5999 111.1 21.5 2.89  52
2020 10 21 02  05 57 30.249   -17 51 44.44  .94409 1.5998 111.1 21.5 2.92  52